Wind_Speed
26 27 28 26 23 21 21 20 20 20 20 20 20 21 21 21 22 22 23 24 24 25 25 25 27 28 28 28 28 28 27 28 30 30 30 31 31 32 33 32 31 30 30 29 29 31 34 35 35 35 37 38 38 38 40 41 42 44 45 46 44 44 42 40 38 35 33 31 30 33 38 41 42 45 45 44 46 44 41 41 41 38 33 30 31 34 35 33
24 26 27 26 24 22 21 21 20 20 20 20 21 21 22 22 22 23 24 25 25 25 25 25 26 26 27 27 27 27 27 29 30 31 30 29 29 30 32 33 33 32 30 29 27 29 32 34 35 35 36 38 38 38 40 41 42 43 44 44 43 43 42 41 40 36 34 32 32 35 39 41 43 46 46 44 44 44 42 42 42 38 32 30 33 36 35 33
23 25 26 26 25 23 22 21 20 20 20 20 21 21 22 22 23 24 24 24 24 25 25 25 25 25 25 25 26 27 28 30 31 31 31 29 29 30 32 33 34 34 32 30 28 28 30 32 34 35 35 36 38 39 39 40 42 42 43 43 41 43 43 42 41 37 35 34 34 37 39 41 44 46 46 44 44 46 45 42 42 37 32 33 37 37 34 32
22 23 24 25 25 23 22 21 20 20 20 20 20 21 21 22 23 24 24 24 24 24 25 25 24 24 25 25 26 28 30 32 32 31 30 29 30 31 32 33 34 34 34 32 30 29 29 30 31 32 34 36 37 39 39 39 41 42 42 41 40 42 43 42 42 39 36 35 36 38 40 42 42 43 46 44 44 48 44 39 40 36 33 37 38 36 33 32
21 22 23 24 24 24 23 22 21 20 20 19 19 20 21 23 24 25 24 24 25 24 24 25 24 24 25 26 28 30 32 32 30 28 27 28 28 30 33 33 33 33 33 33 31 31 30 30 30 30 32 35 37 38 39 39 40 42 42 41 41 42 42 42 42 41 38 36 37 39 40 40 39 41 45 45 45 46 39 37 40 36 36 39 37 34 32 30
22 21 21 23 23 24 23 22 21 20 20 20 19 20 20 23 24 24 24 25 26 25 25 24 25 25 26 27 29 31 32 32 30 27 26 27 26 28 30 30 30 30 31 33 32 32 32 31 31 30 30 32 36 37 38 39 39 40 42 42 42 42 42 41 42 42 39 37 38 40 40 38 38 41 44 45 46 41 35 39 41 37 38 40 37 33 28 26
23 22 21 22 22 23 23 22 21 20 21 21 20 20 20 23 24 25 25 25 26 26 25 24 25 26 26 27 29 30 30 29 29 26 25 25 24 25 26 27 28 28 29 31 31 30 31 31 31 30 29 31 35 36 37 39 39 39 40 42 42 43 42 41 42 41 39 37 38 41 39 37 38 40 42 45 46 39 35 40 40 38 41 41 36 30 25 25
24 22 21 21 22 22 23 23 21 21 21 21 21 20 21 23 24 25 25 25 25 25 25 24 25 26 26 27 28 28 27 28 27 25 25 24 23 23 25 27 28 27 26 26 27 26 26 27 28 29 30 30 33 36 36 38 39 37 38 41 43 43 42 42 41 40 38 36 37 39 37 35 35 38 42 45 43 37 36 40 40 40 43 40 34 27 24 26
25 23 22 21 21 22 22 23 22 21 22 22 22 21 21 22 24 25 25 24 24 24 24 24 24 25 25 27 27 26 26 28 27 25 24 23 21 22 25 28 28 26 22 20 21 21 20 21 23 26 27 29 31 34 36 37 38 37 36 38 41 42 42 42 40 39 38 36 36 36 35 32 30 39 45 43 37 35 38 41 41 43 42 37 31 26 26 27
26 25 23 22 21 21 22 22 22 21 22 22 23 22 21 21 23 24 24 23 23 23 23 23 24 24 25 26 26 25 26 27 25 24 24 21 19 22 25 26 27 24 19 17 18 18 17 17 18 18 19 22 26 29 33 35 35 36 35 36 39 41 41 42 40 38 38 36 34 34 34 30 32 44 44 34 32 36 41 44 44 44 38 34 30 28 28 27
26 26 24 23 22 22 22 22 22 22 22 22 23 22 21 20 21 22 23 22 22 23 22 23 23 23 25 27 27 26 26 25 23 23 22 20 19 21 24 24 25 23 17 15 16 16 15 13 12 12 14 16 18 22 29 33 33 34 34 34 36 38 39 40 38 36 37 35 34 35 35 32 39 46 34 25 32 39 46 49 46 40 35 33 30 29 29 27
26 26 25 24 23 22 22 22 22 22 22 22 22 22 21 19 20 21 22 21 22 22 22 22 23 23 25 27 27 27 27 25 22 22 20 19 19 20 21 23 25 22 17 16 16 15 15 13 11 12 16 18 17 18 24 30 31 32 32 31 32 35 36 36 36 36 35 33 33 37 36 35 40 37 25 25 37 45 51 51 43 37 34 32 30 29 28 28
27 27 26 25 24 23 23 23 23 23 23 22 22 22 21 19 19 20 21 21 21 22 22 22 22 23 25 25 26 27 27 25 22 20 18 18 18 18 19 23 25 18 15 15 15 15 15 15 13 13 18 21 20 19 22 27 30 30 30 29 29 32 32 32 34 34 33 32 33 37 36 34 32 27 23 30 42 48 51 46 39 36 34 31 29 29 28 28
27 27 26 25 25 24 23 23 23 23 24 23 23 23 22 20 19 19 20 20 20 21 22 23 22 23 25 25 25 27 26 24 22 19 18 17 17 16 18 23 23 13 11 12 12 14 14 14 13 13 17 21 21 20 21 26 28 28 29 27 27 28 28 30 33 32 31 32 32 37 35 27 24 25 27 34 43 48 46 41 38 36 33 31 30 29 28 28
26 27 27 26 26 25 25 24 24 24 24 24 23 23 22 21 19 19 20 20 19 20 21 23 22 22 23 24 25 26 26 24 21 19 17 17 15 15 18 23 19 8 8 9 9 10 12 14 13 12 15 18 20 19 21 24 26 27 27 25 25 26 27 29 31 30 31 32 33 37 32 22 23 28 30 33 40 45 43 40 38 35 33 32 30 29 29 29
26 27 27 26 26 26 26 25 25 24 25 24 24 24 23 22 20 19 20 20 19 19 20 22 22 22 22 23 24 26 27 24 21 19 17 17 15 15 18 22 15 7 7 7 7 7 10 12 12 12 13 15 16 16 19 21 22 24 24 23 25 25 27 30 30 30 31 32 33 35 28 23 27 30 31 33 38 42 42 40 37 32 31 31 30 29 29 28
27 27 27 26 26 26 26 26 25 25 25 25 25 24 23 22 21 20 20 20 19 18 19 21 22 23 23 23 23 24 26 26 23 20 18 18 17 15 19 21 13 7 6 5 5 5 7 9 10 10 11 11 12 13 15 17 19 23 23 23 25 25 26 28 29 30 31 31 32 31 24 25 30 29 30 35 38 41 40 38 36 32 30 30 30 30 29 28
27 27 27 27 27 26 26 27 26 25 25 25 25 25 24 23 22 21 20 20 19 17 18 19 21 23 22 22 22 23 25 26 24 22 20 20 18 16 18 18 12 7 6 5 5 5 5 8 9 9 10 10 10 12 14 17 19 22 22 23 24 23 24 26 28 28 29 29 29 26 21 26 31 28 30 35 38 38 35 34 33 31 30 30 31 31 30 29
28 28 28 27 27 27 26 27 27 26 26 26 25 24 24 23 23 22 20 20 20 18 17 18 20 22 22 22 22 21 23 25 25 23 21 20 19 17 17 15 11 6 5 4 4 4 4 6 7 9 10 12 13 15 17 18 19 20 20 20 21 21 22 24 26 27 27 26 25 22 22 27 31 29 31 35 37 35 31 30 30 30 31 30 31 31 30 28
29 28 28 28 28 28 27 27 27 27 27 27 26 25 24 23 22 22 21 20 20 18 17 17 19 21 21 22 22 20 21 23 24 24 22 20 18 16 14 13 10 5 3 3 3 3 4 6 8 9 10 11 14 15 15 15 16 16 17 17 18 19 21 23 25 25 24 23 23 24 26 29 32 31 32 35 35 31 29 29 29 30 31 31 31 30 29 27
30 29 29 28 28 28 28 28 28 27 28 28 27 26 24 23 22 22 21 21 20 17 17 18 18 19 19 20 21 20 19 21 23 24 22 20 17 14 12 11 9 5 2 2 4 4 4 5 7 8 7 8 9 9 10 11 13 13 14 15 15 17 19 21 22 23 24 24 25 28 30 31 33 32 31 31 30 27 27 29 29 30 32 32 31 29 28 28
31 31 30 30 29 29 28 29 29 29 28 28 28 27 25 24 23 22 21 22 22 18 17 18 19 19 19 19 20 20 19 19 20 22 22 20 16 12 10 10 8 6 4 0 3 4 5 5 6 7 7 9 9 9 10 12 12 13 13 13 14 16 18 19 21 23 26 26 28 31 31 31 33 33 28 25 24 24 27 29 30 31 31 31 30 29 29 29
32 32 32 31 30 29 29 30 30 30 29 29 28 27 26 24 23 23 21 22 24 21 17 18 19 20 19 18 18 19 20 19 18 20 21 20 16 12 10 9 7 6 5 4 2 0 2 3 5 7 8 9 10 11 11 11 12 12 11 12 16 18 19 21 22 24 26 27 29 32 30 29 32 31 26 23 22 24 27 30 30 31 30 29 30 29 29 30
32 33 33 33 32 31 30 31 31 32 31 30 29 28 27 25 24 23 21 21 24 24 20 18 19 20 18 18 18 18 20 20 18 18 19 20 17 13 9 8 7 6 5 5 5 4 3 2 2 4 6 7 7 8 8 9 10 10 12 15 19 20 21 22 22 23 24 25 27 28 26 26 27 26 24 24 24 25 28 29 29 30 29 29 29 29 29 30
34 33 33 34 33 32 32 32 32 33 33 31 30 29 28 27 25 24 22 21 23 24 22 20 19 19 19 18 18 18 19 19 18 18 18 18 18 15 10 8 6 6 5 5 6 5 4 4 3 2 3 3 4 5 7 9 11 13 15 18 20 20 19 20 21 20 20 21 22 23 22 25 24 23 24 26 27 28 30 30 29 29 29 29 29 29 29 29
35 34 34 34 34 34 33 33 33 34 34 32 31 31 30 29 27 25 23 21 22 23 22 21 20 20 20 19 18 17 18 18 18 18 17 16 16 15 13 9 7 6 4 3 4 3 3 4 4 3 3 4 6 7 9 12 14 15 18 19 19 19 18 18 18 18 17 17 19 19 19 23 24 22 24 28 30 30 31 31 30 29 29 29 29 29 29 30
37 36 36 35 35 35 34 34 35 35 35 34 33 33 32 31 29 27 25 23 22 23 22 20 21 21 21 20 19 18 17 17 17 17 17 17 15 14 14 12 10 6 4 4 2 1 1 3 4 4 5 7 8 9 11 13 14 16 16 16 17 17 16 16 16 16 16 16 16 15 16 20 22 22 25 29 30 31 32 30 28 28 30 30 30 30 30 30
38 38 37 36 36 36 35 36 36 36 35 35 35 35 33 33 31 28 27 25 23 23 23 21 21 21 21 21 20 18 17 16 16 16 16 16 16 14 13 14 13 10 7 5 3 3 2 1 2 4 5 6 8 10 11 13 14 15 15 15 15 15 16 16 16 15 16 16 14 14 18 19 21 22 26 30 31 31 31 29 28 29 30 30 30 30 30 30
40 39 38 38 38 37 37 37 37 37 36 36 37 36 35 34 33 30 27 26 25 24 24 23 22 22 21 21 20 19 17 15 15 15 15 15 16 15 13 13 13 12 9 6 6 7 5 4 4 3 4 6 8 9 10 11 13 14 15 15 16 16 17 17 17 16 17 15 13 15 21 19 20 23 24 27 30 32 31 30 30 30 30 29 30 30 30 31
42 41 40 40 39 39 39 39 38 38 37 38 38 38 38 37 35 32 27 25 26 25 25 24 23 21 20 19 19 19 17 15 14 14 14 15 15 15 15 13 12 12 10 8 7 9 8 6 6 5 7 9 9 9 10 10 11 13 15 16 17 18 19 19 18 17 17 14 14 17 21 19 19 24 24 25 29 31 30 30 30 29 29 30 30 31 32 33
44 44 42 41 41 40 40 41 40 40 39 39 39 39 40 39 39 35 25 24 28 28 25 24 22 19 18 18 20 21 18 16 14 13 13 14 15 15 15 15 13 12 11 9 9 12 11 8 8 8 9 11 11 11 11 12 12 14 15 16 18 19 19 19 18 18 17 15 16 18 20 20 18 20 24 29 29 28 28 29 29 29 30 31 33 33 34 34
46 46 45 43 43 42 42 43 42 41 41 40 41 41 41 43 44 35 24 24 31 30 25 24 24 21 20 20 21 22 21 18 15 13 13 13 14 16 16 16 15 14 12 10 11 13 12 11 12 11 11 12 13 13 13 14 15 16 17 18 19 19 20 19 18 19 18 18 20 20 20 22 17 16 25 31 30 29 30 31 31 31 31 32 33 33 32 32
48 48 47 46 45 44 44 44 44 44 43 42 43 43 43 47 46 34 24 26 31 31 28 27 27 26 23 21 21 22 22 21 17 14 13 13 14 15 16 17 17 15 14 12 12 12 12 13 14 14 13 14 15 14 15 16 17 18 19 20 21 21 22 21 20 22 21 21 23 23 23 22 16 18 26 30 30 31 31 32 32 32 32 32 32 31 30 30
50 50 49 48 47 47 46 46 46 46 46 45 45 45 47 50 45 34 28 28 31 33 32 30 29 29 26 23 22 22 23 22 21 18 15 13 14 14 15 16 17 17 15 14 13 12 12 13 14 14 15 16 17 17 17 18 19 20 20 22 21 21 24 24 23 24 23 24 25 25 25 20 16 21 28 30 32 31 31 32 32 32 33 32 30 28 28 29
52 51 51 50 50 50 49 48 48 49 49 48 48 49 51 49 43 36 31 30 32 35 36 34 32 30 28 25 23 23 23 23 23 22 18 15 14 14 15 16 16 17 17 16 16 15 13 13 14 15 14 15 17 18 19 20 21 21 21 21 21 22 26 26 26 26 25 26 26 25 24 19 17 22 26 28 30 30 31 33 33 33 32 31 29 27 29 31
54 53 53 53 53 53 53 52 51 51 51 51 52 53 52 48 44 40 35 32 34 36 37 37 35 31 29 28 26 25 25 24 24 24 21 18 16 15 15 16 16 16 17 18 19 17 15 14 16 17 16 16 16 16 18 20 21 21 21 22 23 24 26 26 26 26 27 28 25 23 21 18 18 21 22 25 27 28 31 33 33 33 32 32 31 31 32 33
56 56 55 55 56 56 56 55 54 53 53 53 55 55 52 49 46 43 38 34 34 37 38 39 38 35 31 30 29 27 27 26 26 26 25 23 19 16 17 18 17 16 17 20 20 19 18 17 18 19 19 19 18 17 17 18 20 20 20 22 23 25 26 26 27 27 28 30 27 24 22 19 18 19 20 25 28 30 32 32 32 32 32 33 33 33 33 32
58 58 58 59 60 58 58 58 57 56 55 55 55 55 54 51 46 44 42 37 35 37 41 41 40 38 35 32 30 30 31 29 28 28 27 25 22 19 20 20 19 19 19 20 21 20 21 20 19 21 21 20 21 20 18 19 21 19 19 20 21 22 23 24 27 26 26 28 26 24 20 15 14 16 21 26 29 29 30 29 30 32 32 31 31 31 31 30
60 60 60 62 62 60 60 60 59 58 58 57 55 54 53 51 46 44 44 41 38 39 42 42 41 42 39 35 32 32 33 32 30 29 28 27 24 22 23 23 22 22 21 21 22 22 23 22 20 21 23 23 23 22 21 22 23 21 21 20 20 21 22 23 25 25 25 26 26 24 16 8 13 18 22 26 26 25 27 27 29 29 28 28 28 29 29 29
61 62 62 63 64 62 62 63 62 61 60 56 54 54 54 52 48 46 46 45 42 41 42 43 44 44 42 39 36 34 34 35 34 31 30 28 26 25 26 26 26 26 26 24 24 24 24 24 22 22 24 24 24 24 25 25 26 24 23 22 22 24 25 26 25 24 26 26 27 28 14 8 17 22 20 22 23 24 26 26 27 27 27 27 27 28 29 30
63 64 63 64 65 64 64 65 64 62 60 57 55 56 56 54 51 49 48 48 46 44 44 45 46 46 44 43 39 35 36 38 37 35 32 29 27 26 27 29 29 30 30 28 26 27 27 27 26 24 23 24 25 27 28 27 28 27 25 25 25 27 28 29 27 26 28 29 30 31 18 9 17 21 18 20 23 24 26 25 25 26 27 28 28 29 31 32
63 63 63 65 67 65 66 66 64 62 62 59 58 58 57 55 54 52 51 51 50 48 46 46 47 47 46 45 42 39 39 40 39 38 34 30 28 28 29 31 32 32 32 32 30 30 32 32 30 26 25 27 28 28 27 28 29 29 29 27 27 29 29 30 31 30 32 34 32 32 25 14 16 19 17 20 22 23 25 25 25 26 26 28 30 31 34 35
62 62 63 66 68 69 68 67 65 64 62 59 58 58 58 57 56 55 54 54 53 51 49 48 46 47 47 46 45 44 43 42 42 39 37 33 29 29 31 32 33 33 33 33 32 33 36 37 34 30 29 30 30 28 28 28 29 29 29 29 30 32 31 34 36 34 36 36 32 33 28 15 13 17 16 19 21 22 24 25 26 28 27 29 31 33 36 37
63 65 66 66 68 71 72 70 67 64 61 59 59 58 59 59 59 58 57 55 53 52 51 49 47 48 49 49 49 49 47 47 45 40 38 36 31 29 31 33 34 34 34 35 35 36 39 40 38 36 34 32 30 29 28 28 30 31 30 31 33 34 35 38 38 38 40 36 30 35 28 9 9 18 18 19 22 24 25 27 29 31 31 32 33 35 37 37
67 69 69 67 67 69 69 68 67 65 63 62 61 60 59 59 59 60 59 57 55 54 53 52 50 50 51 52 53 53 51 50 47 43 40 38 33 30 32 34 35 35 35 37 38 40 41 43 43 41 38 35 30 27 28 30 34 35 33 32 33 35 37 39 40 42 42 34 31 38 30 10 12 22 22 21 24 26 28 30 32 34 35 36 36 36 37 37
70 71 70 68 68 68 66 65 66 66 65 65 65 63 60 59 58 58 59 58 57 56 55 54 53 52 52 53 55 55 53 50 49 48 45 39 35 33 34 36 36 36 37 39 41 43 45 47 46 44 43 39 32 30 33 36 37 37 35 33 34 37 38 40 44 44 39 35 37 38 31 21 19 21 22 23 25 28 30 32 35 37 37 38 39 38 38 39
71 71 70 68 68 68 66 65 65 64 65 67 67 64 63 61 58 57 58 58 57 56 55 54 53 53 52 52 55 55 53 51 52 53 49 41 37 37 37 37 38 38 39 41 43 46 49 50 49 47 47 43 37 35 37 39 39 38 37 37 37 39 40 44 48 44 37 40 39 31 31 33 24 17 20 22 23 26 29 31 35 38 39 39 39 40 41 41
72 70 69 69 71 70 66 65 66 66 66 66 65 64 63 63 62 62 61 58 57 56 56 55 54 53 51 52 54 54 53 54 55 55 51 43 39 40 41 41 42 42 42 44 46 49 53 54 52 50 50 47 43 40 39 40 41 40 40 40 39 41 45 48 48 42 38 41 39 32 34 36 27 19 21 22 24 28 32 34 38 40 41 41 42 44 45 44
75 74 71 72 74 72 68 66 68 70 69 67 65 64 64 64 65 64 62 60 60 59 58 57 52 51 53 52 53 53 53 56 57 55 51 45 42 44 45 46 46 46 47 49 51 53 56 57 55 53 53 52 48 44 41 42 43 43 44 43 43 45 47 47 45 41 39 41 40 37 38 36 28 21 19 21 27 33 37 39 41 42 43 44 46 47 47 46
75 74 74 75 76 74 72 70 71 72 71 70 69 64 63 65 65 63 61 62 61 58 58 55 50 51 55 55 55 52 51 56 58 56 53 50 48 48 48 49 50 51 53 54 56 57 58 59 57 55 56 55 51 47 45 44 46 48 48 48 49 49 47 44 41 38 39 41 39 38 41 36 21 14 19 26 29 32 35 36 37 39 42 44 47 48 48 48
81 76 75 77 76 76 76 74 73 74 73 73 70 64 65 67 66 63 62 61 58 56 56 52 50 54 56 56 55 50 49 56 61 59 57 56 55 54 54 54 56 56 58 59 59 60 61 61 60 58 59 59 53 49 48 48 51 53 54 54 53 49 45 42 40 40 41 41 38 39 42 33 17 15 27 31 28 28 28 26 28 33 38 43 44 45 45 45
92 85 80 78 78 78 78 77 77 77 75 72 68 66 68 69 66 65 65 64 61 59 57 54 53 55 56 55 52 47 49 57 60 60 61 61 61 62 61 61 60 60 60 61 61 62 62 63 62 61 62 62 58 54 51 52 55 57 56 54 50 45 44 44 44 44 41 39 39 40 39 32 25 27 31 30 29 30 27 26 30 35 38 40 41 41 41 41
Wind_Direction
322 324 326 323 319 319 318 315 313 316 318 315 311 310 310 312 315 317 318 320 320 318 315 313 310 309 310 310 310 309 308 307 306 304 300 298 297 296 295 293 291 287 282 276 268 260 256 253 250 248 248 247 244 240 237 236 234 231 231 231 228 227 228 230 232 231 226 220 219 221 222 223 223 228 230 224 221 220 220 221 222 220 220 223 224 226 227 225
321 324 326 324 320 319 318 315 314 316 318 316 312 311 312 313 316 318 320 321 320 318 316 315 313 312 312 310 309 308 308 307 305 304 300 295 293 292 292 293 292 288 283 278 271 262 256 253 249 247 246 247 245 241 238 236 235 233 231 230 227 227 228 231 234 232 228 222 220 222 223 223 221 225 229 225 219 219 219 220 222 220 220 224 226 227 226 225
319 324 326 325 322 319 318 316 314 316 318 317 314 313 313 314 316 318 321 323 322 320 319 317 315 313 312 310 308 306 306 306 304 303 299 293 287 287 289 292 292 289 284 279 273 266 259 255 250 246 244 244 244 242 239 236 235 234 232 229 226 226 228 230 233 231 228 224 221 223 225 225 222 223 227 225 217 216 217 219 222 220 220 225 226 227 225 225
316 322 325 326 323 320 318 317 315 315 317 317 315 314 314 315 317 320 323 324 323 322 320 318 316 314 313 311 309 308 307 305 305 302 297 290 285 283 286 289 290 287 282 279 274 268 263 259 254 249 243 240 241 241 238 236 235 235 234 231 227 227 228 229 232 231 230 226 222 224 226 226 224 225 227 225 218 214 215 219 221 220 221 226 228 227 224 225
312 320 324 325 324 321 319 318 316 315 316 316 315 315 315 316 319 322 325 325 324 323 322 321 319 316 315 313 311 310 309 307 306 303 298 292 286 282 283 285 287 283 278 276 272 267 264 261 258 254 246 239 238 239 238 235 234 233 234 233 229 228 227 229 233 234 232 228 224 225 227 227 225 227 228 226 220 214 214 219 220 219 222 228 229 227 224 224
309 316 322 324 324 322 319 319 318 315 314 314 314 315 317 318 320 323 325 324 323 325 326 324 322 319 317 315 313 312 311 310 308 307 304 299 291 285 285 287 288 284 278 274 271 266 263 261 257 254 250 242 235 234 235 234 232 231 231 232 231 229 227 229 233 235 234 229 225 225 227 228 225 226 228 228 221 211 211 219 219 219 223 228 229 227 224 222
306 312 319 322 324 322 320 319 319 316 312 312 313 314 317 318 321 323 324 323 323 327 329 327 324 321 320 317 315 314 313 311 310 311 311 306 302 299 298 298 294 289 282 275 271 266 261 258 255 252 249 244 236 233 233 232 231 230 228 230 231 230 228 229 231 234 234 228 225 225 226 227 225 227 230 228 220 207 210 220 219 220 224 227 227 227 223 219
303 308 315 320 323 322 320 318 319 317 312 311 311 313 317 319 321 323 323 323 325 329 330 328 325 323 322 318 318 319 317 315 313 314 314 312 312 312 311 307 302 297 288 277 268 263 258 255 253 248 243 241 237 233 233 231 230 229 228 229 230 231 230 230 230 232 232 228 225 226 226 226 228 232 230 226 218 205 211 220 221 223 224 226 226 225 223 219
302 305 310 316 320 321 320 318 318 317 314 312 312 314 318 321 322 322 323 323 326 329 329 328 326 325 322 320 325 327 322 320 319 317 317 314 313 314 313 310 307 304 294 278 262 254 255 257 252 245 238 236 235 232 231 230 229 229 229 229 230 231 231 231 230 229 230 229 228 228 227 227 234 235 227 223 217 205 211 220 223 225 224 224 224 224 225 222
302 303 306 312 317 319 319 318 317 316 314 314 314 315 319 323 324 323 323 324 328 329 329 328 327 326 323 325 333 333 328 325 322 319 317 313 310 313 314 312 311 309 299 277 258 247 251 260 255 246 239 234 232 232 229 227 227 228 230 228 229 229 230 232 229 228 230 231 232 230 228 228 233 231 223 219 216 207 212 219 223 225 222 223 223 223 226 223
301 301 303 307 312 316 317 317 316 315 314 315 315 316 320 325 326 324 324 325 329 329 329 328 328 329 327 331 338 337 333 329 324 320 317 313 311 316 319 318 314 310 300 277 259 249 249 259 255 244 247 242 237 234 228 225 223 226 228 226 228 228 228 228 227 228 231 231 234 235 230 226 227 228 223 215 208 207 214 218 220 222 221 222 222 223 226 224
298 300 301 303 307 312 314 315 316 315 313 314 315 317 321 326 327 325 324 326 329 329 328 328 330 332 332 337 340 338 337 331 323 319 317 313 312 318 320 321 318 306 294 281 266 258 256 260 253 234 238 243 246 241 228 222 220 224 227 224 225 226 225 227 228 230 230 228 233 237 230 222 226 228 226 213 203 207 216 218 218 218 219 220 221 223 225 225
296 298 299 301 303 307 310 312 314 315 314 313 313 315 319 325 327 325 324 327 330 328 327 328 332 334 335 340 340 337 338 333 324 319 315 313 317 320 316 324 325 303 281 279 267 259 257 258 256 235 228 234 244 244 228 218 216 221 224 220 221 223 225 228 230 228 227 227 232 237 229 220 228 229 220 212 205 210 217 217 216 216 217 218 220 222 224 226
294 296 297 299 300 303 306 309 312 314 314 314 312 313 318 322 324 325 324 327 330 328 327 327 333 335 335 340 341 337 339 335 328 322 317 316 322 322 318 331 334 304 271 275 263 257 255 255 257 242 232 234 240 240 227 216 215 220 221 219 221 224 228 228 228 227 228 229 232 238 230 217 226 224 214 212 209 212 216 216 216 216 216 215 218 221 223 227
291 293 295 296 298 300 302 305 309 311 314 314 312 312 315 318 321 324 324 327 329 328 327 328 332 335 335 338 340 338 340 338 332 327 323 322 326 326 328 339 340 313 282 281 268 258 251 251 253 247 238 235 236 234 224 216 216 220 222 223 224 227 231 228 229 230 231 232 233 238 231 213 218 218 216 214 211 213 215 215 216 215 215 214 218 220 223 228
289 291 292 294 296 297 299 302 305 309 312 313 313 313 315 316 318 322 324 325 328 329 328 328 331 334 335 337 339 339 340 341 338 333 328 326 332 335 340 346 342 322 307 295 278 261 244 239 238 236 231 227 229 227 222 219 221 226 229 230 228 229 233 232 232 233 233 235 235 239 233 216 217 217 218 215 210 212 214 214 216 216 216 216 218 220 223 228
288 288 290 291 293 294 296 298 301 305 308 310 312 314 316 315 314 318 321 322 326 328 327 328 330 332 333 337 340 340 339 343 345 341 334 331 336 343 347 351 346 324 319 306 273 244 225 221 215 215 217 216 222 223 223 225 228 231 232 232 230 231 236 237 237 236 236 237 238 241 233 217 219 219 220 216 211 212 213 216 217 216 217 216 219 221 224 228
287 287 287 288 290 291 293 295 298 301 304 306 310 313 316 316 313 313 317 319 322 326 325 326 328 329 332 336 341 341 340 344 346 344 339 335 339 346 349 353 354 331 319 312 273 236 203 203 200 198 200 205 213 216 220 224 226 228 230 231 231 232 236 240 241 239 239 239 240 242 228 216 221 223 220 216 214 213 211 214 216 216 216 217 220 222 224 228
284 286 286 286 287 288 290 292 294 297 299 301 306 311 314 316 314 311 312 314 318 322 323 322 324 328 332 335 340 343 342 344 346 345 343 340 341 345 346 355 3 343 315 320 289 254 206 192 197 199 201 203 207 209 213 217 220 224 227 228 229 231 233 236 238 238 238 238 240 236 221 218 225 223 217 214 213 212 210 212 214 214 217 220 223 225 227 229
281 283 284 284 284 285 287 288 291 293 295 297 301 306 310 314 314 310 307 307 311 318 318 318 321 325 331 335 337 342 345 345 346 347 347 345 343 342 344 355 9 7 317 308 295 258 215 192 196 203 209 211 214 217 218 217 218 221 224 226 228 229 230 233 235 235 235 235 237 233 224 227 229 219 211 212 211 210 211 213 215 217 220 224 228 230 232 233
279 280 282 283 282 283 284 285 287 289 291 294 297 302 306 310 312 311 306 302 305 313 314 314 316 320 328 332 333 339 346 347 345 347 350 350 349 345 344 354 7 24 18 276 272 253 225 206 202 199 200 209 217 219 213 209 211 214 217 220 223 229 232 235 237 237 236 234 236 237 231 228 223 209 205 211 209 208 213 215 217 221 223 226 229 232 235 235
277 278 279 281 281 282 282 282 283 285 287 290 294 298 302 306 309 311 309 302 301 308 309 308 309 313 322 329 330 335 342 348 346 345 350 353 355 351 345 354 4 23 52 77 259 252 237 221 210 199 189 189 189 188 190 194 197 202 207 213 221 230 234 235 237 236 235 234 233 234 228 219 210 200 202 211 206 206 215 218 220 224 226 229 231 233 235 237
273 275 277 279 280 280 280 280 281 282 284 286 290 294 297 300 303 306 310 304 301 306 308 304 303 307 316 324 328 331 335 343 346 344 347 351 358 359 345 347 359 15 44 72 75 244 233 221 214 206 201 198 190 187 191 192 196 204 211 217 222 228 230 228 231 230 228 226 224 226 220 205 199 197 204 216 211 211 220 221 223 227 229 232 234 236 239 242
271 272 274 276 278 279 278 278 278 279 281 283 286 289 292 294 297 300 306 305 300 304 310 304 299 302 309 316 321 326 329 335 340 341 343 345 352 0 351 340 346 0 27 56 65 74 92 121 181 195 198 206 201 197 201 201 208 216 215 216 218 222 224 221 222 221 219 219 218 222 213 193 191 197 207 221 221 222 229 228 227 230 232 235 238 240 243 246
269 270 271 273 276 277 277 276 276 277 278 280 282 284 287 289 292 295 300 302 299 302 309 307 301 300 303 308 312 317 322 327 332 335 338 340 344 353 356 345 337 340 7 43 52 61 82 97 102 117 143 166 183 194 203 205 209 210 208 212 214 214 215 215 217 217 217 217 217 222 210 188 188 200 210 223 226 227 233 233 232 234 235 237 240 242 245 248
267 268 269 270 272 275 276 275 275 275 276 277 279 281 283 285 288 291 294 298 297 299 305 305 303 301 300 301 303 308 314 318 323 327 330 333 336 343 348 349 346 335 339 22 40 48 75 105 118 133 146 160 174 187 200 203 204 204 206 210 211 209 210 214 219 219 220 219 218 223 211 192 193 205 216 226 228 228 234 236 235 238 240 240 242 244 245 246
266 266 267 268 270 271 273 274 274 274 274 275 276 277 279 282 284 287 291 294 294 296 299 300 301 300 299 298 297 300 304 309 314 318 321 325 329 333 336 341 347 347 335 335 343 336 119 125 133 150 165 179 186 191 199 204 205 205 208 210 211 214 215 218 223 223 222 220 220 227 222 205 200 209 223 231 233 232 234 237 238 240 243 244 245 245 246 247
264 265 266 267 268 269 270 271 273 274 274 273 274 274 276 278 280 283 287 290 292 294 295 297 298 299 299 298 295 294 296 301 307 310 314 318 321 324 327 330 335 342 341 322 295 283 280 186 176 166 171 192 196 196 199 204 207 210 214 214 217 222 222 225 228 227 228 223 217 230 239 223 198 202 222 231 236 237 238 239 240 242 245 246 247 248 249 250
262 263 264 265 266 268 268 269 270 271 272 272 272 273 274 275 276 278 282 287 291 291 292 294 295 297 299 297 295 293 294 296 300 303 307 311 313 316 318 320 322 329 334 325 293 283 285 271 253 226 221 227 219 211 208 208 210 215 221 221 224 227 227 231 231 232 236 224 209 225 242 233 193 192 219 231 234 238 239 241 242 244 248 249 250 251 251 252
260 260 261 263 265 266 266 268 268 269 270 270 272 272 272 272 272 272 277 286 287 286 289 292 292 293 295 295 295 295 294 293 295 298 300 303 306 306 310 313 313 314 320 321 298 285 283 274 265 255 249 247 242 235 228 224 222 223 228 230 234 234 234 237 234 236 237 220 211 226 241 239 201 195 219 232 234 238 239 241 243 246 249 250 251 252 252 254
258 259 259 260 262 264 265 266 266 267 268 269 270 270 270 270 268 268 275 284 282 282 285 287 287 288 289 292 294 295 294 292 292 293 293 296 297 299 302 304 305 307 306 303 289 288 293 289 276 263 254 253 253 251 246 243 242 239 238 240 242 243 243 242 239 240 237 225 228 234 238 239 211 200 224 232 233 239 242 243 243 245 249 251 253 253 254 257
256 257 258 258 260 261 263 264 265 266 266 267 268 268 269 268 266 267 274 277 276 279 281 279 281 283 283 287 290 291 292 291 289 288 288 290 290 293 295 296 298 299 298 294 284 284 291 288 280 274 266 262 260 259 259 258 256 253 251 251 252 253 252 248 245 246 242 237 241 239 236 236 217 212 235 238 236 240 243 246 248 249 251 251 253 255 257 259
255 256 257 257 257 258 260 262 264 264 265 265 266 266 267 266 266 267 269 269 272 276 276 274 276 278 279 282 284 286 288 288 286 283 283 285 286 287 289 290 292 292 291 290 283 282 282 277 277 278 275 272 269 267 265 262 261 260 260 259 258 259 259 255 252 251 246 243 246 243 239 236 222 224 240 248 249 247 245 247 251 252 253 252 251 253 257 260
255 255 257 257 257 257 258 260 261 263 264 264 264 264 264 264 266 268 265 263 268 271 272 272 272 275 277 277 278 280 283 284 284 281 278 278 280 281 283 285 287 287 285 284 282 281 277 274 276 276 273 271 270 269 266 264 263 263 262 263 263 266 266 262 258 256 251 247 247 248 248 243 232 232 238 247 253 255 256 256 256 256 256 255 254 254 255 258
254 254 255 257 257 256 257 258 259 261 262 263 263 262 262 264 268 269 263 260 262 266 269 271 270 271 272 273 272 275 278 279 280 279 277 274 273 275 278 281 283 283 282 282 279 276 276 278 278 276 272 269 267 267 267 266 264 263 263 265 266 266 267 267 266 266 263 257 253 254 256 253 242 237 237 242 248 253 258 260 261 262 263 265 265 263 260 258
255 254 254 255 256 256 256 256 256 258 259 261 262 262 262 265 267 266 262 258 259 263 266 269 269 269 269 269 270 271 272 274 276 277 277 274 271 271 273 275 277 280 281 279 276 274 275 274 275 277 276 272 270 268 266 266 265 264 264 265 264 263 264 267 267 269 270 268 264 262 261 259 252 247 244 245 247 248 251 254 258 263 267 269 269 267 264 262
256 255 254 254 254 254 254 254 255 256 257 259 261 262 264 264 264 265 264 260 258 261 263 265 267 268 267 267 268 269 268 269 272 274 274 273 272 270 269 269 271 274 276 276 277 278 275 270 270 273 274 275 276 272 269 269 266 263 262 263 263 263 265 267 266 266 267 268 269 269 268 266 262 257 251 248 246 246 248 251 256 260 262 264 265 265 266 266
256 256 255 253 253 253 253 253 254 255 256 257 259 261 262 263 263 264 265 261 257 258 260 262 265 267 266 264 264 266 266 267 268 270 270 270 271 269 267 267 268 268 268 271 275 276 274 270 267 269 271 272 272 273 274 272 268 265 264 263 264 266 267 268 268 268 267 269 269 267 268 269 261 251 248 249 250 251 253 254 255 256 258 260 262 264 266 268
255 257 255 253 253 254 253 253 253 254 255 256 258 261 263 265 263 262 262 260 256 255 257 260 262 264 264 263 261 263 265 266 265 266 268 269 269 268 268 268 266 264 263 265 269 271 272 272 269 268 268 267 268 271 270 267 269 271 272 272 272 272 269 266 268 270 270 272 272 269 267 253 243 241 240 247 253 256 258 258 258 259 261 262 264 266 268 270
254 256 257 255 254 254 254 254 253 253 255 257 259 261 263 263 261 259 260 259 256 254 255 258 260 261 263 264 261 261 264 265 265 265 265 267 267 267 268 268 266 264 262 260 262 265 266 267 267 264 264 266 268 267 265 265 269 272 273 275 274 273 271 270 271 273 275 276 274 274 267 205 233 247 245 249 255 256 258 260 263 265 267 268 270 270 271 272
253 255 257 258 256 255 254 254 254 254 255 257 258 259 261 262 261 259 258 258 257 255 254 255 257 259 261 262 262 261 261 262 263 263 263 264 265 264 264 265 265 265 265 264 263 262 262 261 259 259 262 265 264 262 264 267 268 269 268 269 270 271 273 275 276 276 275 274 272 274 271 229 246 261 260 257 257 257 259 261 265 268 270 271 272 271 271 270
254 255 257 258 258 256 255 254 255 255 254 254 255 258 260 261 261 259 258 257 257 255 254 254 255 258 260 261 263 261 259 259 260 261 262 261 261 261 261 261 263 264 267 268 267 265 264 261 258 256 256 259 259 261 263 265 266 268 268 268 269 270 271 273 272 269 268 269 271 276 279 271 265 269 265 262 262 260 261 261 262 264 266 269 270 269 269 268
256 256 256 256 257 256 255 254 254 254 254 254 256 258 260 261 261 260 259 259 258 257 256 254 254 256 258 259 260 260 259 257 256 257 260 260 258 259 260 260 262 264 265 266 267 266 265 265 263 258 252 252 256 259 261 264 267 268 269 270 268 267 268 267 266 266 266 267 271 275 279 278 270 271 267 263 262 258 260 263 264 264 263 263 265 265 265 266
256 255 254 254 255 254 254 254 255 255 256 256 258 258 259 260 261 261 261 260 260 259 257 256 253 253 254 256 257 258 258 257 257 256 258 260 258 257 259 261 261 262 263 264 264 263 264 265 265 261 256 253 253 257 261 264 265 264 263 263 264 266 267 266 268 269 267 268 271 274 275 268 258 268 263 258 261 261 263 269 271 270 267 264 264 264 265 266
256 255 253 253 253 254 254 254 254 255 255 256 256 257 259 259 259 260 261 261 260 259 258 257 254 250 250 252 254 256 257 259 260 258 256 258 258 257 258 259 260 261 262 263 262 263 263 264 263 263 262 259 255 257 258 257 258 258 257 258 262 264 265 267 268 267 268 274 274 271 274 259 236 254 257 258 265 269 272 275 274 272 271 269 268 268 270 271
254 254 253 252 253 254 254 254 254 253 253 255 255 255 256 258 259 261 262 261 261 260 259 259 256 252 249 250 252 255 257 259 261 261 258 256 256 256 255 256 258 259 260 261 262 262 262 262 263 263 263 262 258 255 253 252 254 256 257 258 259 261 263 264 265 265 271 276 269 268 277 272 246 247 256 261 265 268 270 271 270 269 268 268 270 271 272 272
252 253 253 254 254 255 254 254 255 254 253 253 254 255 256 258 259 260 260 259 259 259 259 260 259 257 254 251 251 253 255 256 258 260 259 256 253 254 254 254 255 256 257 259 260 261 261 261 262 263 263 262 259 254 253 254 256 257 258 257 256 258 260 261 262 265 269 272 271 275 280 273 261 254 256 258 263 265 264 263 263 265 266 268 270 270 270 270
253 253 254 255 256 255 255 254 255 255 254 254 254 254 254 255 255 255 256 257 258 259 259 260 260 261 259 254 250 250 252 254 256 258 259 257 254 252 252 251 251 251 253 255 256 258 259 260 260 261 262 262 260 257 256 258 260 260 260 258 256 257 257 258 262 266 268 274 279 281 275 273 275 272 260 256 259 259 258 258 259 262 266 268 270 270 270 271
254 254 255 256 257 257 256 255 254 254 253 253 253 251 251 252 253 253 254 255 256 257 258 259 261 262 260 255 250 248 249 251 253 255 256 255 251 249 249 249 249 249 249 250 252 254 257 259 259 261 262 263 262 261 261 262 263 262 261 260 258 256 255 258 263 268 270 275 279 280 276 277 283 284 271 257 252 249 249 253 257 260 263 267 269 270 271 273
254 255 255 256 256 257 256 255 254 254 253 253 252 250 250 252 252 252 253 254 256 258 259 260 262 261 259 255 252 251 251 249 249 250 251 249 248 247 247 247 247 247 247 248 249 252 255 258 260 260 262 263 263 264 264 264 264 263 261 259 257 256 256 261 267 271 271 273 277 277 275 277 288 287 260 248 245 245 248 252 257 261 262 263 264 265 268 272
254 255 255 254 254 255 255 254 254 253 253 253 251 249 249 251 252 253 254 254 255 258 258 258 258 257 256 255 254 256 255 249 245 246 247 247 247 246 245 245 244 245 246 248 250 252 255 258 260 260 262 263 263 264 264 264 265 265 261 258 258 261 265 268 270 269 267 270 274 273 274 283 294 265 253 254 254 254 254 257 259 260 260 261 262 264 267 270
254 253 253 254 254 253 252 252 252 252 252 253 252 250 250 251 252 253 253 252 252 253 254 254 255 255 255 255 256 259 257 250 246 246 245 245 246 246 246 246 246 245 247 248 250 252 254 256 259 259 262 263 263 262 261 263 265 264 262 262 265 269 271 270 268 267 269 272 273 272 275 282 276 262 261 265 265 264 266 263 257 255 256 260 263 267 269 272
Height
5786 5784 5782 5781 5779 5777 5776 5774 5773 5772 5771 5770 5769 5767 5765 5763 5762 5760 5757 5755 5753 5751 5750 5748 5747 5745 5744 5742 5741 5739 5737 5734 5732 5731 5730 5728 5726 5724 5723 5722 5722 5722 5721 5721 5721 5720 5720 5720 5721 5722 5723 5724 5725 5727 5728 5730 5731 5733 5734 5736 5740 5744 5747 5749 5751 5754 5756 5759 5760 5760 5760 5761 5763 5763 5764 5768 5772 5776 5779 5782 5784 5787 5791 5792 5791 5790 5792 5796
5784 5782 5781 5779 5777 5776 5774 5773 5771 5770 5769 5768 5766 5765 5763 5762 5760 5758 5756 5753 5751 5749 5747 5746 5745 5743 5742 5740 5738 5736 5734 5732 5730 5728 5727 5725 5723 5721 5719 5718 5717 5717 5717 5717 5717 5716 5716 5716 5716 5718 5719 5720 5722 5723 5724 5726 5727 5729 5731 5733 5737 5741 5743 5745 5747 5750 5752 5754 5756 5756 5755 5756 5758 5759 5760 5764 5770 5773 5776 5779 5781 5785 5789 5788 5786 5786 5789 5794
5782 5780 5779 5777 5775 5774 5772 5771 5770 5769 5767 5766 5764 5763 5762 5760 5758 5756 5754 5751 5749 5747 5745 5744 5743 5741 5740 5738 5736 5734 5732 5730 5727 5725 5723 5721 5720 5718 5716 5714 5713 5712 5712 5712 5712 5712 5712 5712 5712 5713 5715 5716 5718 5719 5721 5722 5724 5726 5728 5730 5734 5737 5739 5741 5743 5746 5748 5750 5752 5751 5751 5752 5754 5756 5757 5761 5766 5768 5771 5776 5779 5783 5785 5783 5781 5782 5788 5792
5780 5778 5777 5775 5773 5772 5770 5769 5768 5767 5766 5764 5762 5761 5760 5758 5757 5755 5752 5750 5747 5745 5743 5742 5740 5739 5737 5735 5733 5731 5729 5727 5725 5722 5719 5718 5716 5715 5713 5711 5709 5708 5707 5707 5708 5708 5708 5708 5708 5709 5710 5711 5713 5715 5717 5719 5721 5722 5725 5728 5731 5733 5735 5738 5739 5742 5744 5746 5747 5747 5747 5749 5752 5754 5755 5758 5761 5763 5769 5775 5777 5780 5781 5778 5777 5780 5786 5790
5778 5776 5775 5773 5771 5770 5769 5767 5766 5765 5764 5762 5761 5759 5758 5757 5755 5753 5751 5748 5746 5744 5742 5739 5738 5736 5734 5733 5731 5728 5726 5723 5722 5719 5716 5715 5713 5711 5709 5707 5706 5705 5704 5703 5703 5702 5703 5703 5704 5705 5706 5707 5708 5711 5713 5715 5717 5719 5722 5725 5727 5729 5732 5734 5736 5737 5740 5742 5743 5743 5744 5746 5750 5752 5752 5754 5756 5762 5770 5772 5773 5777 5777 5774 5774 5778 5784 5788
5776 5775 5773 5771 5770 5768 5767 5766 5765 5764 5762 5761 5759 5757 5756 5755 5754 5752 5750 5747 5744 5742 5740 5738 5735 5733 5732 5730 5728 5725 5722 5720 5718 5716 5714 5711 5709 5707 5705 5703 5702 5701 5700 5699 5698 5698 5698 5698 5699 5700 5702 5703 5704 5707 5709 5712 5713 5715 5718 5721 5723 5726 5728 5731 5732 5733 5736 5738 5739 5740 5742 5744 5747 5748 5749 5750 5753 5762 5769 5768 5769 5773 5772 5770 5772 5777 5782 5786
5775 5773 5771 5770 5768 5767 5765 5764 5763 5762 5760 5759 5757 5755 5754 5753 5752 5751 5748 5745 5742 5740 5738 5736 5733 5731 5729 5727 5725 5723 5720 5717 5714 5712 5710 5707 5706 5704 5702 5700 5699 5697 5696 5694 5694 5694 5694 5693 5694 5696 5698 5699 5700 5703 5706 5708 5710 5712 5715 5717 5719 5722 5724 5728 5729 5730 5732 5733 5735 5736 5738 5741 5743 5744 5746 5746 5750 5761 5766 5764 5767 5769 5767 5767 5771 5776 5780 5783
5773 5772 5770 5768 5767 5765 5764 5763 5762 5760 5759 5757 5755 5754 5752 5751 5750 5749 5746 5743 5741 5739 5736 5734 5732 5729 5727 5725 5723 5721 5718 5715 5711 5709 5707 5705 5704 5702 5700 5698 5695 5694 5692 5690 5690 5690 5690 5690 5690 5691 5693 5695 5697 5700 5702 5704 5707 5709 5712 5714 5716 5718 5721 5724 5725 5727 5728 5729 5731 5732 5736 5739 5741 5741 5741 5742 5749 5760 5762 5761 5763 5763 5762 5765 5770 5775 5778 5780
5771 5770 5768 5767 5765 5763 5762 5761 5760 5759 5757 5755 5753 5752 5751 5749 5748 5747 5745 5742 5739 5737 5735 5733 5730 5728 5725 5723 5721 5719 5715 5712 5709 5707 5705 5703 5702 5699 5697 5695 5692 5690 5688 5687 5687 5687 5687 5687 5687 5687 5689 5691 5693 5696 5699 5701 5704 5707 5710 5711 5713 5715 5718 5720 5722 5724 5725 5726 5728 5730 5733 5737 5739 5735 5735 5741 5751 5758 5758 5757 5758 5757 5759 5764 5769 5773 5775 5777
5769 5768 5767 5765 5763 5762 5760 5759 5758 5757 5755 5753 5752 5750 5749 5748 5746 5745 5743 5741 5738 5736 5734 5731 5729 5726 5724 5721 5719 5716 5713 5710 5708 5706 5703 5702 5700 5698 5695 5693 5690 5688 5686 5686 5686 5686 5686 5685 5685 5685 5686 5688 5691 5694 5696 5698 5702 5704 5706 5708 5710 5712 5715 5716 5718 5721 5722 5724 5726 5727 5729 5734 5734 5728 5733 5745 5750 5753 5753 5752 5751 5752 5759 5764 5767 5770 5772 5774
5767 5766 5765 5764 5762 5760 5759 5757 5756 5755 5753 5752 5750 5749 5748 5746 5744 5743 5741 5739 5737 5735 5732 5730 5728 5725 5722 5719 5716 5714 5711 5709 5706 5704 5702 5700 5698 5696 5694 5691 5689 5687 5686 5685 5685 5685 5684 5684 5684 5684 5685 5687 5689 5691 5693 5696 5699 5701 5703 5705 5708 5710 5712 5713 5716 5718 5719 5721 5723 5723 5725 5729 5728 5726 5737 5745 5745 5747 5745 5744 5746 5752 5759 5762 5765 5768 5769 5771
5764 5764 5763 5762 5760 5759 5757 5756 5755 5753 5752 5750 5749 5747 5746 5745 5743 5741 5740 5738 5736 5733 5731 5728 5726 5724 5721 5717 5714 5712 5710 5707 5705 5703 5700 5699 5697 5695 5692 5690 5688 5686 5684 5683 5683 5683 5683 5683 5683 5684 5685 5686 5688 5689 5691 5693 5696 5699 5700 5703 5705 5707 5710 5712 5714 5715 5716 5719 5721 5719 5721 5725 5726 5730 5739 5739 5738 5739 5737 5739 5747 5752 5757 5760 5763 5766 5767 5768
5762 5761 5761 5760 5758 5757 5755 5754 5753 5751 5750 5749 5747 5746 5745 5744 5741 5740 5738 5736 5734 5732 5729 5727 5725 5722 5719 5717 5714 5711 5709 5706 5704 5702 5700 5698 5696 5694 5691 5689 5686 5683 5682 5682 5682 5681 5682 5682 5682 5683 5685 5686 5687 5688 5689 5692 5694 5697 5698 5701 5704 5705 5708 5710 5710 5712 5714 5717 5718 5716 5718 5724 5728 5732 5736 5733 5733 5734 5734 5741 5747 5751 5755 5759 5761 5763 5764 5765
5759 5758 5758 5758 5757 5755 5754 5752 5751 5749 5748 5747 5746 5744 5744 5742 5740 5738 5736 5735 5732 5730 5727 5725 5723 5721 5718 5716 5713 5710 5708 5706 5704 5701 5699 5697 5695 5693 5690 5687 5683 5681 5681 5681 5681 5680 5680 5681 5681 5682 5683 5684 5685 5686 5688 5690 5693 5695 5697 5700 5702 5704 5705 5707 5708 5710 5712 5714 5715 5713 5717 5725 5729 5730 5730 5729 5730 5731 5735 5741 5745 5749 5753 5756 5758 5760 5761 5762
5756 5756 5755 5755 5754 5753 5752 5750 5749 5747 5746 5745 5744 5743 5742 5741 5739 5736 5735 5733 5731 5728 5726 5724 5722 5720 5717 5715 5712 5710 5708 5706 5703 5701 5698 5696 5694 5692 5689 5686 5682 5681 5681 5680 5680 5679 5679 5679 5680 5680 5681 5683 5684 5686 5687 5689 5691 5693 5696 5698 5700 5702 5703 5705 5706 5708 5710 5711 5712 5711 5716 5724 5725 5725 5725 5725 5728 5730 5735 5739 5743 5747 5750 5753 5755 5757 5759 5759
5754 5753 5753 5752 5752 5751 5750 5749 5747 5745 5744 5743 5742 5741 5740 5739 5737 5735 5733 5731 5729 5727 5724 5722 5720 5719 5717 5714 5712 5709 5707 5705 5702 5699 5697 5695 5693 5690 5688 5685 5682 5680 5680 5679 5679 5678 5678 5679 5679 5680 5681 5682 5684 5685 5687 5689 5691 5693 5695 5697 5699 5701 5702 5703 5705 5707 5708 5709 5710 5710 5716 5722 5722 5722 5722 5723 5726 5729 5732 5737 5741 5745 5748 5750 5753 5755 5756 5757
5750 5750 5750 5750 5749 5749 5748 5746 5745 5744 5742 5740 5740 5739 5738 5737 5736 5734 5732 5730 5728 5726 5723 5721 5719 5718 5716 5714 5711 5709 5706 5704 5701 5698 5696 5693 5691 5689 5687 5684 5681 5680 5679 5679 5678 5678 5678 5678 5679 5680 5681 5682 5683 5685 5687 5689 5691 5692 5694 5696 5697 5699 5700 5701 5703 5705 5706 5708 5708 5710 5716 5720 5719 5720 5721 5722 5724 5726 5731 5735 5739 5743 5745 5748 5750 5752 5753 5754
5747 5747 5747 5747 5747 5746 5745 5744 5743 5742 5740 5738 5737 5737 5736 5735 5734 5732 5730 5728 5727 5725 5722 5719 5718 5716 5715 5713 5711 5708 5706 5703 5701 5698 5695 5692 5690 5688 5686 5684 5681 5680 5679 5679 5678 5678 5678 5679 5679 5680 5681 5682 5683 5685 5687 5688 5689 5691 5693 5694 5696 5698 5700 5700 5701 5703 5705 5706 5707 5710 5715 5717 5717 5719 5720 5720 5722 5725 5730 5734 5737 5740 5743 5745 5747 5749 5750 5751
5744 5744 5744 5744 5744 5743 5743 5741 5740 5739 5738 5736 5735 5735 5734 5733 5732 5730 5729 5727 5725 5724 5722 5719 5717 5715 5713 5711 5710 5708 5705 5703 5701 5698 5695 5692 5690 5688 5686 5684 5681 5680 5680 5679 5679 5679 5679 5679 5679 5680 5680 5681 5682 5683 5684 5686 5688 5690 5692 5694 5695 5697 5698 5699 5699 5701 5703 5704 5706 5709 5713 5714 5715 5717 5718 5719 5721 5724 5729 5732 5735 5737 5740 5742 5743 5745 5747 5748
5741 5741 5740 5740 5740 5740 5740 5739 5737 5737 5735 5734 5733 5733 5732 5731 5730 5728 5727 5725 5724 5722 5721 5719 5716 5714 5712 5710 5708 5707 5705 5702 5700 5698 5695 5693 5690 5688 5687 5685 5682 5681 5681 5680 5680 5679 5679 5679 5679 5680 5680 5681 5681 5682 5684 5686 5687 5689 5691 5693 5694 5696 5697 5697 5698 5700 5701 5703 5705 5707 5710 5711 5712 5715 5716 5717 5720 5724 5728 5730 5732 5735 5737 5738 5740 5742 5744 5746
5739 5738 5737 5737 5737 5737 5737 5736 5735 5734 5733 5732 5731 5731 5730 5729 5728 5726 5725 5723 5722 5721 5720 5718 5716 5713 5711 5709 5707 5706 5705 5702 5700 5698 5696 5693 5691 5689 5687 5685 5683 5681 5681 5681 5681 5680 5680 5680 5680 5680 5680 5681 5682 5683 5684 5686 5687 5688 5690 5692 5694 5695 5696 5697 5698 5699 5700 5702 5703 5705 5707 5709 5710 5713 5714 5716 5720 5724 5726 5728 5730 5732 5733 5735 5737 5739 5741 5743
5736 5735 5735 5734 5733 5734 5733 5733 5732 5731 5730 5729 5729 5729 5728 5727 5726 5724 5723 5721 5719 5719 5718 5717 5715 5712 5710 5708 5706 5705 5703 5702 5700 5698 5696 5695 5692 5690 5688 5686 5684 5683 5681 5681 5681 5681 5681 5680 5680 5681 5681 5681 5682 5683 5684 5685 5686 5688 5689 5691 5693 5694 5695 5696 5697 5698 5699 5700 5702 5702 5704 5707 5709 5711 5713 5715 5719 5722 5723 5725 5727 5728 5730 5732 5735 5737 5738 5740
5732 5732 5732 5731 5731 5730 5730 5729 5728 5728 5727 5727 5727 5726 5726 5725 5723 5722 5721 5719 5716 5716 5717 5715 5714 5712 5709 5707 5705 5704 5702 5701 5700 5698 5696 5695 5693 5692 5689 5687 5686 5684 5683 5681 5681 5681 5681 5681 5681 5681 5681 5681 5682 5683 5683 5685 5686 5687 5689 5691 5692 5693 5694 5695 5695 5696 5697 5699 5700 5700 5703 5706 5708 5711 5713 5715 5718 5720 5720 5721 5723 5725 5728 5730 5732 5734 5735 5736
5728 5728 5728 5728 5728 5727 5726 5726 5725 5724 5724 5724 5724 5723 5723 5722 5721 5720 5719 5718 5714 5713 5714 5713 5712 5711 5708 5706 5704 5703 5701 5700 5699 5698 5696 5694 5693 5692 5690 5688 5687 5685 5684 5682 5681 5681 5681 5681 5681 5681 5681 5681 5682 5682 5683 5684 5686 5687 5689 5690 5691 5692 5693 5693 5694 5695 5696 5698 5699 5700 5702 5705 5707 5710 5713 5714 5715 5717 5717 5718 5721 5724 5726 5728 5729 5731 5732 5733
5725 5724 5724 5724 5724 5724 5723 5722 5722 5721 5720 5721 5720 5720 5719 5719 5719 5718 5717 5717 5714 5711 5711 5711 5710 5710 5708 5705 5703 5702 5700 5699 5699 5697 5696 5694 5693 5692 5691 5690 5688 5686 5685 5683 5682 5681 5681 5681 5681 5681 5681 5681 5682 5683 5684 5685 5686 5687 5688 5689 5690 5691 5692 5692 5693 5694 5696 5698 5699 5700 5702 5704 5706 5709 5711 5711 5712 5714 5714 5716 5719 5721 5724 5726 5726 5727 5729 5730
5720 5720 5720 5720 5720 5720 5720 5719 5718 5717 5717 5717 5717 5716 5716 5715 5715 5715 5715 5715 5713 5710 5709 5708 5708 5708 5706 5704 5702 5700 5699 5698 5697 5697 5695 5694 5693 5691 5691 5690 5689 5688 5686 5684 5682 5682 5682 5681 5681 5682 5682 5682 5683 5684 5685 5686 5687 5688 5688 5689 5690 5690 5691 5692 5693 5694 5696 5697 5698 5699 5701 5703 5705 5707 5708 5708 5709 5711 5712 5714 5717 5719 5720 5722 5723 5724 5725 5726
5716 5716 5716 5716 5716 5716 5716 5715 5715 5714 5714 5713 5713 5712 5712 5711 5712 5712 5712 5712 5711 5709 5708 5707 5706 5706 5705 5703 5701 5699 5697 5696 5696 5696 5695 5694 5693 5691 5690 5690 5689 5689 5687 5685 5684 5683 5683 5683 5683 5683 5683 5683 5684 5685 5685 5686 5687 5688 5688 5689 5689 5690 5691 5691 5692 5694 5695 5696 5697 5699 5700 5702 5704 5706 5706 5705 5706 5708 5710 5712 5714 5716 5716 5718 5719 5721 5721 5722
5711 5711 5711 5711 5711 5711 5711 5711 5711 5711 5710 5710 5709 5708 5708 5708 5708 5708 5709 5709 5708 5707 5706 5705 5704 5703 5703 5702 5700 5698 5696 5695 5694 5694 5694 5693 5692 5691 5690 5689 5688 5688 5687 5686 5684 5683 5683 5683 5683 5683 5684 5684 5684 5685 5686 5686 5687 5687 5688 5688 5689 5689 5690 5690 5691 5693 5694 5695 5697 5698 5698 5699 5702 5704 5703 5702 5704 5705 5707 5710 5711 5712 5713 5714 5715 5716 5717 5718
5706 5706 5707 5707 5707 5707 5707 5706 5706 5706 5706 5706 5705 5705 5705 5704 5704 5704 5705 5706 5705 5704 5703 5703 5702 5701 5701 5700 5699 5697 5695 5693 5692 5692 5692 5692 5691 5690 5689 5688 5687 5687 5687 5686 5685 5684 5683 5683 5683 5684 5684 5683 5684 5684 5685 5686 5686 5687 5687 5687 5688 5688 5689 5689 5690 5692 5692 5694 5696 5696 5695 5697 5700 5701 5701 5700 5701 5702 5705 5707 5708 5709 5710 5710 5710 5711 5712 5713
5700 5701 5701 5702 5702 5702 5702 5702 5702 5702 5702 5702 5702 5702 5701 5700 5700 5700 5702 5704 5702 5701 5701 5701 5699 5699 5698 5698 5697 5696 5694 5692 5690 5690 5690 5690 5690 5689 5689 5688 5687 5686 5686 5686 5685 5684 5683 5683 5683 5684 5684 5683 5683 5683 5684 5685 5685 5686 5686 5686 5686 5687 5687 5688 5689 5690 5691 5692 5694 5694 5694 5696 5698 5699 5698 5698 5699 5700 5702 5704 5705 5706 5706 5706 5707 5708 5709 5709
5695 5695 5696 5697 5697 5697 5697 5697 5697 5697 5698 5698 5698 5697 5697 5696 5694 5696 5700 5701 5698 5697 5698 5698 5697 5696 5696 5696 5695 5694 5693 5691 5689 5688 5687 5687 5687 5687 5687 5687 5686 5686 5685 5685 5684 5683 5683 5683 5683 5683 5683 5682 5682 5683 5683 5684 5684 5684 5684 5685 5685 5685 5685 5686 5688 5689 5689 5690 5691 5692 5693 5694 5696 5698 5696 5695 5696 5697 5699 5700 5701 5702 5702 5703 5703 5704 5705 5705
5689 5689 5690 5691 5692 5692 5692 5691 5692 5693 5692 5693 5693 5692 5693 5690 5688 5693 5699 5698 5693 5693 5695 5694 5694 5694 5693 5693 5693 5692 5692 5690 5689 5687 5686 5685 5685 5685 5686 5685 5685 5685 5684 5684 5684 5683 5683 5682 5682 5682 5682 5681 5681 5681 5682 5682 5682 5682 5682 5683 5683 5683 5683 5684 5685 5686 5687 5687 5687 5689 5691 5692 5695 5697 5693 5692 5694 5695 5695 5696 5697 5698 5699 5699 5699 5699 5700 5701
5683 5683 5684 5685 5686 5687 5686 5686 5687 5687 5687 5688 5688 5688 5688 5683 5683 5691 5696 5694 5690 5689 5690 5691 5691 5691 5690 5690 5690 5690 5690 5689 5688 5686 5684 5684 5683 5683 5684 5684 5684 5684 5683 5683 5682 5682 5682 5681 5681 5681 5681 5680 5680 5680 5680 5680 5680 5680 5680 5680 5681 5681 5681 5681 5683 5683 5684 5685 5684 5686 5688 5690 5694 5695 5691 5689 5689 5690 5691 5692 5692 5693 5694 5694 5695 5696 5697 5697
5677 5677 5677 5679 5680 5680 5680 5681 5681 5681 5682 5682 5682 5682 5680 5677 5681 5690 5692 5690 5688 5686 5685 5686 5687 5687 5687 5687 5687 5687 5687 5687 5686 5685 5683 5682 5681 5681 5681 5682 5682 5682 5682 5682 5681 5681 5681 5680 5680 5680 5680 5679 5679 5678 5678 5678 5678 5678 5678 5678 5679 5680 5678 5679 5680 5680 5681 5682 5681 5682 5684 5688 5692 5691 5688 5686 5685 5685 5686 5686 5687 5688 5688 5689 5691 5693 5693 5693
5670 5671 5671 5672 5673 5673 5674 5675 5675 5675 5676 5676 5677 5675 5672 5673 5680 5685 5686 5686 5684 5682 5681 5681 5682 5683 5684 5684 5684 5683 5684 5684 5684 5683 5682 5680 5679 5679 5679 5679 5679 5679 5680 5680 5680 5679 5679 5679 5678 5678 5678 5678 5678 5677 5677 5677 5676 5676 5677 5677 5677 5677 5675 5675 5676 5676 5677 5678 5679 5680 5681 5685 5687 5686 5686 5685 5684 5683 5682 5681 5681 5681 5683 5684 5687 5689 5689 5688
5662 5663 5664 5665 5665 5666 5668 5668 5669 5669 5669 5670 5669 5667 5667 5673 5677 5679 5680 5682 5681 5679 5678 5677 5677 5679 5680 5681 5681 5680 5680 5680 5681 5680 5680 5679 5678 5677 5676 5676 5677 5677 5677 5677 5677 5677 5678 5678 5676 5676 5676 5676 5676 5676 5676 5675 5674 5675 5675 5674 5674 5674 5673 5673 5673 5673 5673 5672 5675 5677 5679 5681 5682 5682 5683 5682 5681 5681 5679 5677 5678 5678 5679 5680 5681 5683 5683 5683
5655 5656 5658 5658 5657 5659 5660 5661 5661 5662 5662 5663 5661 5661 5664 5669 5672 5673 5675 5677 5677 5676 5674 5673 5673 5674 5676 5677 5677 5677 5676 5677 5677 5677 5677 5677 5676 5676 5674 5673 5673 5674 5675 5674 5674 5675 5675 5675 5675 5674 5673 5674 5674 5674 5674 5673 5673 5672 5672 5672 5671 5671 5671 5671 5670 5671 5670 5669 5671 5674 5675 5677 5678 5678 5678 5677 5676 5675 5675 5676 5676 5677 5677 5677 5677 5677 5677 5678
5647 5648 5650 5649 5648 5651 5653 5653 5654 5655 5655 5655 5654 5655 5659 5663 5668 5670 5670 5671 5672 5671 5670 5669 5670 5669 5670 5672 5674 5673 5672 5672 5673 5673 5674 5674 5674 5674 5672 5671 5670 5670 5671 5671 5671 5672 5671 5672 5673 5672 5671 5671 5671 5671 5672 5671 5670 5670 5670 5670 5669 5669 5669 5668 5667 5667 5668 5667 5668 5670 5672 5674 5674 5674 5673 5671 5670 5671 5672 5673 5674 5673 5674 5674 5674 5673 5673 5674
5639 5641 5642 5640 5640 5643 5645 5644 5646 5647 5647 5647 5649 5651 5654 5659 5664 5664 5663 5664 5666 5665 5665 5665 5666 5664 5665 5667 5669 5670 5669 5668 5668 5669 5670 5671 5672 5672 5670 5669 5668 5667 5667 5667 5667 5668 5668 5668 5670 5670 5669 5668 5668 5669 5669 5667 5667 5667 5668 5668 5668 5667 5666 5665 5665 5665 5665 5664 5664 5666 5670 5672 5670 5669 5668 5667 5668 5669 5669 5669 5669 5669 5670 5671 5671 5670 5670 5670
5632 5632 5634 5633 5631 5635 5637 5636 5638 5639 5639 5641 5645 5646 5648 5653 5657 5658 5657 5657 5658 5660 5660 5661 5661 5660 5661 5662 5663 5665 5665 5664 5664 5664 5666 5668 5669 5669 5668 5666 5665 5664 5663 5663 5664 5664 5664 5664 5666 5666 5666 5666 5667 5666 5665 5665 5665 5665 5665 5665 5665 5664 5662 5662 5662 5663 5662 5661 5660 5661 5667 5670 5666 5664 5666 5666 5667 5667 5666 5666 5666 5667 5667 5667 5667 5667 5666 5666
5623 5624 5627 5625 5622 5626 5628 5627 5630 5633 5634 5637 5639 5639 5641 5646 5650 5651 5651 5651 5652 5653 5654 5655 5655 5655 5656 5656 5658 5660 5660 5659 5660 5659 5661 5664 5666 5666 5665 5663 5662 5661 5659 5660 5660 5659 5659 5659 5661 5662 5663 5663 5663 5662 5662 5663 5662 5662 5663 5663 5662 5660 5660 5659 5659 5660 5659 5657 5657 5657 5663 5667 5664 5663 5665 5665 5664 5664 5664 5664 5664 5664 5664 5664 5664 5664 5663 5662
5614 5617 5620 5616 5614 5618 5619 5619 5624 5627 5627 5630 5632 5633 5635 5639 5642 5644 5645 5645 5645 5646 5647 5649 5650 5651 5651 5652 5653 5654 5654 5654 5655 5655 5656 5659 5661 5662 5662 5659 5658 5657 5656 5656 5657 5656 5654 5653 5655 5659 5660 5659 5658 5659 5660 5659 5659 5659 5659 5660 5660 5658 5657 5656 5655 5656 5654 5653 5654 5654 5658 5664 5663 5662 5662 5662 5662 5662 5661 5662 5662 5662 5662 5661 5661 5660 5659 5658
5606 5609 5609 5607 5606 5608 5609 5612 5617 5618 5620 5624 5626 5628 5630 5631 5634 5636 5637 5638 5638 5640 5641 5642 5645 5646 5646 5647 5647 5646 5647 5647 5649 5651 5652 5654 5657 5658 5657 5656 5655 5654 5653 5652 5653 5652 5649 5647 5650 5653 5654 5654 5654 5655 5656 5656 5656 5656 5656 5657 5656 5655 5655 5652 5650 5651 5650 5650 5653 5652 5654 5660 5661 5660 5660 5659 5659 5659 5658 5659 5659 5658 5659 5659 5657 5656 5655 5654
5598 5598 5597 5598 5598 5598 5600 5606 5610 5612 5615 5619 5619 5620 5622 5623 5626 5628 5629 5631 5633 5633 5634 5635 5638 5639 5639 5640 5640 5640 5640 5640 5642 5647 5648 5649 5652 5654 5652 5652 5651 5650 5649 5648 5647 5646 5644 5643 5644 5646 5647 5650 5651 5652 5653 5653 5652 5651 5652 5653 5651 5651 5650 5647 5647 5647 5644 5647 5652 5648 5650 5659 5660 5656 5656 5657 5656 5656 5655 5655 5654 5653 5654 5654 5653 5651 5650 5650
5587 5585 5586 5589 5589 5589 5594 5600 5603 5604 5608 5609 5610 5612 5614 5615 5618 5620 5622 5625 5625 5626 5627 5627 5630 5631 5632 5633 5632 5632 5634 5635 5637 5641 5642 5644 5647 5649 5648 5647 5647 5646 5645 5643 5641 5640 5639 5637 5637 5639 5641 5644 5647 5650 5649 5647 5645 5644 5647 5648 5647 5647 5645 5643 5643 5640 5639 5646 5648 5642 5646 5657 5658 5653 5653 5654 5653 5652 5652 5650 5649 5648 5648 5647 5647 5646 5646 5645
5575 5573 5576 5580 5581 5582 5588 5593 5593 5595 5599 5600 5600 5604 5606 5608 5611 5613 5615 5617 5618 5618 5618 5619 5622 5623 5625 5626 5625 5626 5629 5631 5632 5632 5635 5640 5642 5643 5643 5642 5642 5642 5640 5638 5636 5634 5632 5630 5631 5633 5634 5637 5643 5645 5643 5640 5639 5639 5641 5643 5642 5641 5640 5638 5635 5634 5639 5643 5639 5637 5644 5650 5652 5653 5652 5652 5652 5650 5650 5648 5645 5643 5642 5642 5642 5642 5641 5641
5563 5563 5567 5572 5572 5573 5579 5584 5585 5588 5590 5589 5591 5597 5600 5602 5605 5605 5606 5608 5609 5610 5610 5612 5614 5615 5618 5620 5619 5620 5624 5625 5625 5624 5627 5633 5636 5636 5636 5636 5637 5636 5634 5633 5631 5628 5625 5624 5626 5627 5627 5630 5636 5638 5637 5635 5634 5635 5636 5637 5637 5635 5634 5631 5627 5631 5639 5635 5630 5638 5643 5640 5645 5652 5651 5649 5650 5647 5646 5644 5640 5638 5638 5638 5638 5637 5636 5635
5554 5556 5561 5563 5561 5563 5572 5577 5578 5578 5579 5580 5584 5589 5591 5594 5596 5595 5597 5600 5601 5602 5602 5604 5607 5609 5611 5612 5612 5615 5618 5618 5617 5618 5620 5626 5630 5629 5629 5629 5629 5629 5628 5627 5624 5621 5618 5616 5619 5620 5620 5623 5627 5630 5632 5631 5630 5631 5630 5630 5632 5630 5627 5624 5623 5630 5635 5629 5627 5636 5637 5632 5639 5646 5646 5646 5646 5642 5639 5638 5636 5635 5634 5633 5632 5630 5630 5630
5547 5549 5554 5553 5550 5555 5564 5568 5567 5565 5568 5572 5574 5579 5584 5586 5586 5587 5590 5591 5591 5593 5594 5596 5603 5605 5603 5604 5605 5608 5611 5610 5610 5613 5615 5618 5620 5620 5620 5621 5621 5622 5621 5619 5617 5614 5611 5609 5613 5615 5614 5616 5620 5623 5626 5626 5624 5624 5623 5623 5624 5622 5620 5620 5623 5628 5629 5624 5624 5629 5628 5628 5635 5640 5640 5640 5638 5635 5633 5632 5631 5631 5631 5629 5627 5625 5625 5625
5539 5543 5546 5543 5541 5547 5552 5555 5554 5555 5560 5561 5563 5573 5579 5577 5577 5580 5582 5581 5583 5587 5587 5592 5598 5597 5593 5595 5595 5599 5604 5603 5602 5605 5606 5607 5610 5611 5611 5612 5613 5612 5611 5610 5609 5607 5605 5604 5607 5609 5607 5608 5613 5617 5619 5619 5617 5615 5615 5615 5614 5613 5616 5619 5622 5625 5623 5620 5622 5623 5619 5623 5632 5635 5632 5630 5629 5629 5629 5629 5629 5629 5627 5624 5622 5621 5621 5622
5531 5534 5535 5531 5532 5537 5540 5543 5544 5545 5548 5550 5557 5569 5570 5566 5570 5573 5572 5574 5578 5579 5581 5586 5588 5585 5583 5585 5587 5594 5598 5593 5591 5596 5596 5596 5600 5601 5600 5601 5601 5601 5601 5602 5602 5601 5601 5599 5600 5603 5600 5600 5607 5612 5612 5612 5610 5604 5601 5603 5606 5610 5614 5617 5618 5618 5616 5616 5619 5617 5614 5620 5629 5629 5623 5622 5625 5625 5626 5627 5627 5624 5621 5618 5616 5617 5618 5618
5519 5520 5523 5522 5522 5525 5529 5532 5533 5532 5537 5545 5554 5560 5558 5558 5563 5562 5560 5565 5569 5570 5573 5576 5576 5573 5574 5578 5584 5590 5589 5582 5583 5586 5585 5587 5589 5589 5590 5591 5592 5593 5594 5594 5595 5595 5595 5594 5595 5596 5593 5593 5599 5603 5605 5606 5601 5591 5589 5597 5606 5610 5611 5610 5609 5609 5611 5614 5613 5610 5610 5616 5620 5619 5618 5619 5620 5620 5622 5623 5621 5617 5615 5613 5613 5614 5614 5614